[ hide orbit diagram ]
For accurate long-term ephemerides, please instead use our Horizons system.This orbit viewer was implemented using two-body methods, and hence should not be used for determining accurate long-term trajectories (over several years or decades) or planetary encounter circumstances.
Orbital Elements at Epoch 2459200.5 (2020-Dec-17.0) TDB
Reference: JPL 34 (heliocentric ecliptic J2000)
Element | Value | Uncertainty (1-sigma) | Units |
e | .1209835428070364 | 2.8625e-08 | |
a | 3.10027551429373 | 1.5442e-08 | au |
q | 2.725193198896568 | 8.633e-08 | au |
i | 7.320603252464555 | 3.3892e-06 | deg |
node | 78.96429355551047 | 2.5739e-05 | deg |
peri | 199.030590535743 | 2.9549e-05 | deg |
M | 145.275064285668 | 1.4757e-05 | deg |
tp | 2458395.886272419788 (2018-Oct-04.38627242) | 8.0683e-05 | TDB |
period | 1993.879289285935 5.46 | 1.4897e-05 4.079e-08 | d yr |
n | .1805525549788554 | 1.349e-09 | deg/d |
Q | 3.475357829690892 | 1.731e-08 | au |
|
| | Orbit Determination Parameters
Additional Information
|
[ show covariance matrix ]
Physical Parameter Table
Parameter |
Symbol |
Value |
Units |
Sigma |
Reference |
Notes |
absolute magnitude |
H |
13.18 |
|
n/a |
E2021B10 |
|
diameter |
diameter |
8.053 |
km |
0.235 |
urn:nasa:pds:neowise_diameters_albedos::2.0[mainbelt] (http://adsabs.harvard.edu/abs/2011ApJ...741...68M) |
|
geometric albedo |
albedo |
0.157 |
|
0.028 |
urn:nasa:pds:neowise_diameters_albedos::2.0[mainbelt] (http://adsabs.harvard.edu/abs/2011ApJ...741...68M) |
|
|
13145 Cavezzo | Discovered 1995 Feb. 27 at the Cavezzo Observatory. |
The inhabitants of Cavezzo, a small town in northern Italy, supported the construction and development of the Public Astronomical Observatory `G. Montanari'. The observatory is visited by about 2500 people every year and works to increase the public understanding and appreciation of astronomy. |
NOTE: some special characters may not display properly (any characters within {} are an attempt to place the proper accent above a character) |
Reference: 20010509/MPCPages.arc | Last Updated: 2009-05-11 |
|
[ show close-approach data ]
|